Date String (YYYY-MM-DD hh:mm:ss) UTC,Instrument flags,absolute air pressure of the measurement (hPa),sample flow rate (lpm),inlet stack bypass flow (lpm),air temperature of the measurement (°C),ambient temperature measured by the external sensor (°C),aerosol sample conditioner tube jacket temperature (°C),OPC LED temperature (°C),internal box temperature (°C),relative humidity of the measurement (%),span deviation,mass concentration of particles derived from Lorenz-Mie calculation of OPC scattering (μg/m³),mass concentration of particles derived from Lorenz-Mie calculation of OPC scattering (μg/m³),mass concentration of particles derived from Lorenz-Mie calculation of OPC scattering (μg/m³)
DateTimeUTC,F1_M11,P_M11,Q1_M11,Q2_M11,T1_M11,T2_M11,T3_M11,T4_M11,T5_M11,U1_M11,ZSPAN_M11,X0_M11,X2_M11,X1_M11
2023-08-21 17:00:00,SystemResetWarning,0836.2,5.01,000.00,027.6,024.0,000.0,035.8,029.1,27.4,0002.5,0019.65,0007.76,0006.75
2023-08-21 17:01:00,SystemResetWarning,0836.2,5.02,000.00,027.6,024.2,000.0,035.8,029.1,26.4,0002.4,0020.07,0007.81,0006.77
2023-08-21 17:02:00,SystemResetWarning,0836.2,5.00,000.00,027.5,024.6,000.0,035.8,029.0,26.4,0002.6,0019.82,0007.84,0006.77
2023-08-21 17:03:00,SystemResetWarning,0836.2,5.00,000.00,027.5,025.0,000.0,035.9,029.1,26.2,0002.5,0018.45,0007.84,0006.76
2023-08-21 17:04:00,SystemResetWarning,0836.3,5.00,000.00,027.6,025.4,000.0,035.9,029.2,26.3,0002.3,0018.94,0007.86,0006.76
2023-08-21 17:05:00,SystemResetWarning,0836.3,5.00,000.00,027.6,025.7,000.0,035.9,029.3,26.4,0002.2,0019.50,0007.91,0006.78
2023-08-21 17:06:00,SystemResetWarning,0836.3,5.00,000.00,027.7,026.0,000.0,036.0,029.5,26.1,0002.3,0020.31,0007.92,0006.77
2023-08-21 17:07:00,SystemResetWarning,0836.2,5.00,000.00,027.7,026.3,000.0,036.0,029.5,26.2,0002.3,0021.03,0007.90,0006.77
2023-08-21 17:08:00,SystemResetWarning,0836.2,4.99,000.00,027.7,025.4,000.0,035.9,029.4,26.3,0002.1,0020.51,0007.93,0006.78
2023-08-21 17:09:00,SystemResetWarning,0836.2,5.02,000.00,027.7,024.3,000.0,035.8,029.2,26.7,0002.0,0019.87,0007.93,0006.79
2023-08-21 17:10:00,SystemResetWarning,0836.2,5.00,000.00,027.6,024.3,000.0,035.8,029.1,27.8,0002.0,0019.19,0007.95,0006.78
2023-08-21 17:11:00,SystemResetWarning,0836.2,5.00,000.00,027.6,024.7,000.0,035.8,029.1,27.4,0001.8,0019.78,0007.95,0006.77
2023-08-21 17:12:00,SystemResetWarning,0836.2,5.00,000.00,027.6,025.1,000.0,035.8,029.2,27.7,0001.7,0019.38,0007.95,0006.76
2023-08-21 17:13:00,SystemResetWarning,0836.2,5.00,000.00,027.6,025.4,000.0,035.9,029.3,28.0,0001.5,0019.23,0007.95,0006.78
2023-08-21 17:14:00,SystemResetWarning,0836.2,4.99,000.00,027.6,025.8,000.0,035.9,029.4,27.1,0001.1,0019.31,0007.98,0006.79
2023-08-21 17:15:00,SystemResetWarning,0836.2,4.99,000.00,027.7,026.1,000.0,035.9,029.5,26.9,0001.1,0018.73,0008.00,0006.80
2023-08-21 17:16:00,SystemResetWarning,0836.2,4.99,000.00,027.7,025.3,000.0,035.9,029.3,26.9,0001.3,0018.50,0007.97,0006.78
2023-08-21 17:17:00,SystemResetWarning,0836.2,5.01,000.00,027.6,024.2,000.0,035.8,029.2,26.8,0001.1,0017.98,0007.92,0006.76
2023-08-21 17:18:00,SystemResetWarning,0836.2,5.01,000.00,027.6,024.3,000.0,035.7,029.1,26.7,0001.0,0016.69,0007.86,0006.74
2023-08-21 17:19:00,SystemResetWarning,0836.2,5.00,000.00,027.6,024.6,000.0,035.8,029.1,26.9,0001.0,0016.42,0007.85,0006.73
2023-08-21 17:20:00,SystemResetWarning,0836.2,5.00,000.00,027.5,025.0,000.0,035.8,029.1,26.8,0001.7,0016.34,0007.85,0006.73
2023-08-21 17:21:00,SystemResetWarning,0836.2,5.00,000.00,027.6,025.4,000.0,035.9,029.2,26.7,0002.0,0016.22,0007.84,0006.73
2023-08-21 17:22:00,SystemResetWarning,0836.2,5.00,000.00,027.6,025.7,000.0,035.9,029.3,27.3,0001.9,0015.55,0007.81,0006.73
2023-08-21 17:23:00,SystemResetWarning,0836.2,5.00,000.00,027.7,026.0,000.0,035.9,029.4,27.2,0002.3,0016.07,0007.76,0006.72
2023-08-21 17:24:00,SystemResetWarning,0836.2,4.99,000.00,027.7,025.2,000.0,035.8,029.3,26.9,0002.6,0015.31,0007.70,0006.70
2023-08-21 17:25:00,SystemResetWarning,0836.2,5.00,000.00,027.6,024.1,000.0,035.8,029.1,25.3,0002.8,0015.12,0007.71,0006.69
2023-08-21 17:26:00,SystemResetWarning,0836.2,5.02,000.00,027.5,024.2,000.0,035.7,029.1,24.5,0003.0,0015.05,0007.68,0006.67
2023-08-21 17:27:00,SystemResetWarning,0836.1,5.00,000.00,027.5,024.6,000.0,035.8,029.1,24.5,0002.8,0015.29,0007.68,0006.66
2023-08-21 17:28:00,SystemResetWarning,0836.2,5.00,000.00,027.5,024.9,000.0,035.8,029.1,24.0,0002.7,0015.76,0007.65,0006.65
2023-08-21 17:29:00,SystemResetWarning,0836.1,5.00,000.00,027.5,025.3,000.0,035.8,029.2,23.4,0002.8,0016.05,0007.67,0006.62
2023-08-21 17:30:00,SystemResetWarning,0836.1,5.00,000.00,027.6,025.7,000.0,035.8,029.3,23.0,0002.8,0015.84,0007.67,0006.59
2023-08-21 17:31:00,SystemResetWarning,0836.1,4.99,000.00,027.6,026.1,000.0,035.9,029.4,23.9,0002.2,0015.62,0007.62,0006.56
2023-08-21 17:32:00,SystemResetWarning,0836.2,5.00,000.00,027.7,026.0,000.0,035.9,029.4,25.7,0001.8,0015.56,0007.60,0006.54
2023-08-21 17:33:00,SystemResetWarning,0836.1,4.99,000.00,027.6,024.7,000.0,035.8,029.2,24.6,0001.9,0015.29,0007.58,0006.52
2023-08-21 17:34:00,SystemResetWarning,0836.1,5.00,000.00,027.6,024.1,000.0,035.7,029.1,24.4,0001.8,0014.12,0007.55,0006.49
2023-08-21 17:35:00,SystemResetWarning,0836.1,5.02,000.00,027.5,024.4,000.0,035.7,029.1,24.5,0001.8,0013.58,0007.55,0006.48
2023-08-21 17:36:00,SystemResetWarning,0836.1,4.99,000.00,027.5,024.8,000.0,035.8,029.1,24.4,0001.8,0013.40,0007.50,0006.47
2023-08-21 17:37:00,SystemResetWarning,0836.1,5.00,000.00,027.5,025.2,000.0,035.8,029.2,23.6,0001.6,0013.65,0007.49,0006.47
2023-08-21 17:38:00,SystemResetWarning,0836.1,5.00,000.00,027.6,025.6,000.0,035.8,029.3,23.9,0001.3,0013.88,0007.43,0006.47
2023-08-21 17:39:00,SystemResetWarning,0836.1,5.00,000.00,027.6,025.9,000.0,035.9,029.4,24.0,0002.0,0014.07,0007.43,0006.48
2023-08-21 17:40:00,SystemResetWarning,0836.1,5.00,000.00,027.7,026.2,000.0,035.9,029.5,23.9,0002.0,0013.48,0007.46,0006.50
2023-08-21 17:41:00,SystemResetWarning,0836.1,4.99,000.00,027.7,025.5,000.0,035.8,029.4,23.2,0001.6,0013.95,0007.44,0006.52
2023-08-21 17:42:00,SystemResetWarning,0836.1,5.00,000.00,027.6,024.2,000.0,035.8,029.1,23.0,0001.7,0014.73,0007.46,0006.54
2023-08-21 17:43:00,SystemResetWarning,0836.1,5.02,000.00,027.6,024.3,000.0,035.7,029.1,22.4,0001.8,0016.85,0007.49,0006.54
2023-08-21 17:44:00,SystemResetWarning,0836.1,5.00,000.00,027.6,024.6,000.0,035.8,029.1,22.2,0001.8,0017.77,0007.51,0006.57
2023-08-21 17:45:00,SystemResetWarning,0836.1,5.00,000.00,027.5,025.0,000.0,035.8,029.1,22.5,0001.9,0018.09,0007.51,0006.57
2023-08-21 17:46:00,SystemResetWarning,0836.1,5.00,000.00,027.6,025.4,000.0,035.8,029.2,22.0,0001.6,0018.28,0007.52,0006.57
2023-08-21 17:47:00,SystemResetWarning,0836.1,5.00,000.00,027.6,025.8,000.0,035.8,029.3,21.5,0001.5,0018.54,0007.53,0006.57
2023-08-21 17:48:00,SystemResetWarning,0836.1,4.98,000.00,027.7,026.1,000.0,035.9,029.4,21.8,0001.9,0018.55,0007.57,0006.59
2023-08-21 17:49:00,SystemResetWarning,0836.1,5.00,000.00,027.7,025.3,000.0,035.8,029.3,22.2,0002.1,0019.75,0007.63,0006.60
2023-08-21 17:50:00,SystemResetWarning,0836.1,5.00,000.00,027.6,024.2,000.0,035.7,029.0,21.9,0002.0,0019.83,0007.65,0006.59
2023-08-21 17:51:00,SystemResetWarning,0836.1,5.01,000.00,027.5,024.2,000.0,035.7,029.0,20.4,0001.9,0019.98,0007.64,0006.58
2023-08-21 17:52:00,SystemResetWarning,0836.1,5.01,000.00,027.5,024.6,000.0,035.7,029.0,19.7,0002.2,0020.02,0007.63,0006.55
2023-08-21 17:53:00,SystemResetWarning,0836.1,5.01,000.00,027.5,025.0,000.0,035.8,029.1,19.1,0002.7,0020.07,0007.62,0006.54
2023-08-21 17:54:00,SystemResetWarning,0836.1,5.00,000.00,027.5,025.4,000.0,035.8,029.2,18.1,0002.7,0018.52,0007.56,0006.53
2023-08-21 17:55:00,SystemResetWarning,0836.1,4.99,000.00,027.6,025.8,000.0,035.8,029.3,17.5,0002.6,0016.93,0007.49,0006.50
2023-08-21 17:56:00,SystemResetWarning,0836.1,4.99,000.00,027.6,026.1,000.0,035.9,029.4,17.0,0002.3,0016.72,0007.49,0006.47
2023-08-21 17:57:00,SystemResetWarning,0836.1,4.99,000.00,027.7,025.4,000.0,035.8,029.3,17.0,0002.5,0017.71,0007.44,0006.45
2023-08-21 17:58:00,SystemResetWarning,0836.0,5.01,000.00,027.6,024.1,000.0,035.7,029.1,18.8,0002.8,0018.58,0007.39,0006.41
2023-08-21 17:59:00,SystemResetWarning,0836.0,5.01,000.00,027.5,024.2,000.0,035.7,029.0,20.2,0002.7,0018.36,0007.30,0006.35
